{"data":{"norad_id":64913,"intl_designator":"2025-157K","name":"STARLINK-34659","alt_names":[],"object_type":"PAYLOAD","status":"ACTIVE","operator":null,"country":"US","launch_date":"2025-07-26","launch_site_code":"AFETR","launch_vehicle":null,"mission":null,"orbit_class":"UNKNOWN","rcs_meters":null,"size_class":null,"mass_kg":null,"dimensions":null,"purposes":["comms"],"wikipedia_slug":null,"has_3d_model":false,"image_url":null,"decayed_at":null,"tle_current":{"epoch":"2026-09-19T23:34:18.451200Z","epoch_age_seconds":169051,"freshness":"FRESH","line1":"1 64913U 25157K   26262.98215800  .00015013  00000+0  49444-3 0  9991","line2":"2 64913  53.1605 161.5859 0001311  60.4051 299.7081 15.31709688 65849","mean_motion":15.31709688,"eccentricity":0.0001311,"inclination_deg":53.1605,"raan_deg":161.5859,"arg_perigee_deg":60.4051,"mean_anomaly_deg":299.7081,"bstar":0.00049444,"rev_number":6584,"period_min":94.01259333159,"perigee_km":469.81323196599,"apogee_km":471.60899994199,"semimajor_km":6848.848115954,"source":"CELESTRAK","updated_at":"2026-09-21T09:00:35.455773Z"}}}